[[{"header":{"parameterUnit":"m.s-1","parameterCategory":1,"la1":30.2991,"la2":30.254,"lo1":-89.0895,"lo2":-89.0444,"dy":0.0017,"dx":0.0017,"nx":28,"ny":28,"refTime":"2024-06-23T09:00:00:Z","depth":0,"parameterNumber":2,"parameterNumberName":"U-component_of_WINDS"},"data":[0,0,0,0,0,0,0,0,0,0,0,0,0,0,0,0,0,0,0,0,0,0,0,0,0,0,0,0,0,0,0,0,0,0,0,0,0,0,0,0,0,0,0,0,0,0,0,0,0,0,0,0,0,0,0,0,0,0,0.6894,0.6895,0,0.7054,0.7056,0.7058,0.7132,0.7131,0.7131,0.7131,0.7298,0.7302,0.7307,0,0,0,0,0,0,0,0,0,0,0,0,0,0.665,0.6654,0.6893,0.6896,0.6898,0.7054,0.7056,0.7059,0.7132,0.7131,0.7131,0.7131,0.7296,0.7302,0.7307,0,0,0,0,0,0,0,0,0,0,0,0,0,0.6778,0.6656,0.6893,0.6953,0.696,0.7054,0.7056,0.7059,0.7132,0.7131,0.7131,0.7131,0.7294,0.7301,0.7308,0.7355,0,0,0.7329,0.7332,0,0,0,0,0,0,0,0,0.6771,0.6787,0.6942,0.6949,0.6957,0.7073,0.7032,0.7158,0.7132,0.7066,0.7131,0.7131,0.7223,0.7236,0.7267,0.7363,0.737,0.7329,0.7334,0.7337,0.7339,0,0,0,0,0,0,0,0.6762,0.678,0.6957,0.6944,0.6953,0.6972,0.699,0.7056,0.7144,0.7072,0.7078,0.7096,0.7227,0.726,0.7271,0.7373,0.7329,0.7335,0.734,0.7342,0.7515,0.7516,0,0,0,0,0,0,0.6743,0.6772,0.6952,0.6962,0.6861,0.6976,0.6996,0.7036,0.7144,0.716,0.7096,0.7099,0.7248,0.7263,0.7277,0.734,0.7337,0.7343,0.7347,0.7515,0.7515,0.7516,0,0,0,0,0,0,0.6737,0.6758,0.6946,0.6869,0.6894,0.6981,0.7024,0.7039,0.7072,0.7162,0.7178,0.7113,0.7249,0.7268,0.7335,0.7346,0.7346,0.7352,0.7514,0.7515,0.7516,0.7465,0,0,0,0,0,0,0.673,0.6756,0.6775,0.6869,0.6898,0.7,0.7025,0.7042,0.7083,0.7088,0.7182,0.7197,0.725,0.7324,0.7342,0.7356,0.7358,0.7514,0.7514,0.7515,0.7466,0.7463,0.7461,0,0,0,0,0,0.6721,0.6754,0.6775,0.6797,0.6923,0.7001,0.7018,0.7077,0.7084,0.7104,0.7161,0.7194,0.7342,0.7331,0.7351,0.7367,0.7513,0.7514,0.7515,0.7467,0.7464,0.7462,0,0,0,0,0,0,0.666,0.6768,0.6792,0.6857,0.6919,0.7013,0.704,0.7072,0.7134,0.7137,0.7208,0.7229,0.729,0.7335,0.7321,0.7418,0.7431,0.7436,0.7387,0.7385,0.7383,0.7371,0.7363,0,0,0,0,0,0.6654,0.6708,0.6799,0.6847,0.6877,0.6953,0.6989,0.7029,0.7097,0.7123,0.7186,0.7251,0.7312,0.7351,0.7412,0.7472,0.7494,0.7493,0.7491,0.7489,0.7493,0.7528,0.7529,0.7519,0.7519,0.7519,0,0,0.6642,0.6708,0.6738,0.6837,0.689,0.6944,0.6975,0.7031,0.7072,0.7132,0.72,0.7247,0.7325,0.7388,0.742,0.7428,0.75,0.749,0.7488,0.7493,0.7529,0.753,0.7531,0.752,0.752,0.752,0,0,0.6649,0.6703,0.675,0.6802,0.6881,0.6931,0.6942,0.7031,0.7065,0.7133,0.7179,0.7229,0.7333,0.7386,0.7426,0.7451,0.7484,0.7469,0.7458,0.7492,0.7492,0.7493,0.7502,0.7505,0.7472,0.7472,0.7472,0,0.6624,0.6708,0.6769,0.6823,0.6865,0.6921,0.6968,0.7016,0.7111,0.7139,0.7147,0.7277,0.7333,0.741,0.7416,0.7447,0.7461,0.7459,0.7487,0.7489,0.7491,0.75,0.7503,0.747,0.747,0.747,0.747,0,0.6674,0.6731,0.6759,0.6848,0.6894,0.6944,0.7012,0.7051,0.7086,0.7135,0.7204,0.7272,0.7348,0.7369,0.7405,0.7451,0.7454,0.7473,0.7487,0.7488,0.7498,0.7502,0.7466,0.7467,0.7468,0.7468,0,0,0.6648,0.677,0.6779,0.6821,0.6912,0.6957,0.7009,0.7082,0.7114,0.7177,0.7223,0.7309,0.7327,0.7373,0.7415,0.7444,0.7459,0.746,0.7463,0.7458,0.7514,0.7499,0.7502,0.748,0.7481,0.7482,0.7507,0,0.6667,0.6763,0.6819,0.6892,0.6946,0.6999,0.7044,0.7105,0.7152,0.7204,0.7256,0.7315,0.7335,0.7363,0.7394,0.745,0.7471,0.7449,0.7524,0.7526,0.7504,0.7507,0.7492,0.7512,0.7511,0.7512,0.7513,0,0.6703,0.6765,0.6843,0.6927,0.6952,0.6991,0.7063,0.7112,0.7182,0.7214,0.7263,0.7305,0.7362,0.737,0.745,0.7434,0.7468,0.75,0.7502,0.7513,0.752,0.7518,0.752,0.7523,0.7519,0.7519,0.7518,0,0.6676,0.6779,0.6839,0.6873,0.6972,0.6999,0.7042,0.7111,0.7152,0.7214,0.7241,0.7309,0.7346,0.7398,0.7457,0.7457,0.7531,0.7544,0.7559,0.7558,0.7574,0.7572,0.7582,0.7594,0.7594,0.7594,0.7593,0,0.6693,0.6739,0.6828,0.6865,0.6918,0.6981,0.7032,0.7079,0.714,0.7187,0.7237,0.728,0.7355,0.7407,0.7454,0.7513,0.7529,0.7557,0.7569,0.7553,0.755,0.7577,0.7577,0.7594,0.7594,0.7594,0.7594,0,0.6673,0.6734,0.6803,0.6892,0.6915,0.695,0.7026,0.7064,0.7112,0.7171,0.7188,0.7265,0.7329,0.7392,0.7479,0.751,0.7568,0.7584,0.7545,0.7552,0.7564,0.7562,0.7592,0.76,0.7605,0.7605,0.7605,0,0.6679,0.6716,0.6808,0.6842,0.6884,0.694,0.6981,0.7044,0.7085,0.7166,0.7194,0.7262,0.7319,0.7419,0.7483,0.7549,0.7567,0.7573,0.7577,0.756,0.7568,0.7565,0.7569,0.7571,0.7571,0.7571,0.757,0,0.6685,0.6713,0.677,0.6838,0.6885,0.6941,0.6999,0.7025,0.71,0.7143,0.7209,0.7253,0.7341,0.7407,0.748,0.7525,0.756,0.7568,0.7575,0.756,0.7536,0.7549,0.754,0.7568,0.7568,0.7568,0.7568,0.7568,0.6679,0.6713,0.6783,0.6845,0.6895,0.6948,0.6988,0.7041,0.7097,0.7173,0.7207,0.7273,0.7341,0.7443,0.7486,0.7539,0.7548,0.7559,0.7561,0.7563,0.756,0.7526,0.7553,0.7553,0.7553,0.7553,0.7553,0,0.6687,0.6734,0.679,0.687,0.6918,0.6946,0.7011,0.705,0.7107,0.7168,0.7223,0.7298,0.7362,0.743,0.7498,0.7527,0.7545,0.7543,0.7542,0.7552,0.7547,0.7535,0.7528,0.7528,0.7528,0.7528,0.7528,0.7528,0.6697,0.6757,0.6794,0.6879,0.6926,0.6991,0.7026,0.7075,0.7123,0.7205,0.7258,0.7302,0.7365,0.7438,0.7498,0.7517,0.754,0.7533,0.7556,0.7551,0.7552,0.7554,0.7543,0.7538,0.7538,0.7557,0.7557,0.7557]},{"header":{"parameterUnit":"m.s-1","parameterCategory":1,"la1":30.2991,"la2":30.254,"lo1":-89.0895,"lo2":-89.0444,"dy":0.0017,"dx":0.0017,"nx":28,"ny":28,"refTime":"2024-06-23T09:00:00:Z","depth":0,"parameterNumber":3,"parameterNumberName":"V-component_of_WINDS"},"data":[0,0,0,0,0,0,0,0,0,0,0,0,0,0,0,0,0,0,0,0,0,0,0,0,0,0,0,0,0,0,0,0,0,0,0,0,0,0,0,0,0,0,0,0,0,0,0,0,0,0,0,0,0,0,0,0,0,0,3.7263,3.7263,0,3.7228,3.7227,3.7227,3.7219,3.7219,3.7219,3.722,3.7177,3.7176,3.7174,0,0,0,0,0,0,0,0,0,0,0,0,0,3.7319,3.7318,3.7263,3.7263,3.7262,3.7228,3.7227,3.7227,3.7219,3.7219,3.7219,3.722,3.7178,3.7176,3.7174,0,0,0,0,0,0,0,0,0,0,0,0,0,3.729,3.7318,3.7263,3.7254,3.7253,3.7228,3.7227,3.7227,3.7219,3.7219,3.722,3.722,3.7178,3.7176,3.7174,3.7153,0,0,3.7168,3.7167,0,0,0,0,0,0,0,0,3.7292,3.7288,3.7256,3.7255,3.7254,3.7228,3.7231,3.7202,3.7219,3.7232,3.722,3.722,3.7193,3.719,3.7182,3.7151,3.7149,3.7168,3.7166,3.7165,3.7165,0,0,0,0,0,0,0,3.7294,3.7289,3.7249,3.7256,3.7254,3.725,3.7247,3.7226,3.721,3.7231,3.723,3.7226,3.7193,3.7184,3.7181,3.7149,3.7168,3.7166,3.7164,3.7164,3.7098,3.7097,0,0,0,0,0,0,3.7298,3.7291,3.725,3.7248,3.7274,3.7249,3.7245,3.7236,3.7211,3.7207,3.7226,3.7226,3.7188,3.7184,3.718,3.7154,3.7165,3.7163,3.7162,3.7098,3.7098,3.7097,0,0,0,0,0,0,3.7299,3.7295,3.7252,3.7269,3.7264,3.7248,3.7238,3.7235,3.7227,3.7207,3.7204,3.722,3.7188,3.7183,3.716,3.7152,3.7163,3.7161,3.7099,3.7098,3.7098,3.7101,0,0,0,0,0,0,3.7301,3.7295,3.7288,3.7269,3.7263,3.7234,3.7237,3.7234,3.7224,3.7224,3.7201,3.7198,3.7188,3.7163,3.7158,3.7149,3.7159,3.71,3.7099,3.7098,3.7102,3.7101,3.71,0,0,0,0,0,3.7303,3.7289,3.7288,3.7283,3.7254,3.7234,3.723,3.722,3.7223,3.7215,3.7203,3.7199,3.7154,3.7161,3.7155,3.7146,3.71,3.7099,3.7098,3.7102,3.7101,3.71,0,0,0,0,0,0,3.7306,3.7287,3.7285,3.7265,3.7252,3.7233,3.7223,3.7219,3.7203,3.7203,3.719,3.7185,3.7163,3.7152,3.716,3.7124,3.7127,3.7124,3.7132,3.7131,3.713,3.7133,3.7157,0,0,0,0,0,3.7304,3.7291,3.7275,3.7259,3.7252,3.7239,3.7229,3.7223,3.7208,3.7201,3.7187,3.717,3.7153,3.7141,3.7123,3.71,3.7094,3.709,3.7089,3.7089,3.7086,3.7073,3.7071,3.7094,3.7094,3.7094,0,0,3.7301,3.7289,3.7281,3.7259,3.7248,3.7233,3.7234,3.7218,3.7206,3.7198,3.7177,3.7166,3.7146,3.7123,3.7112,3.7113,3.7079,3.7087,3.7087,3.7085,3.7071,3.7069,3.7067,3.7093,3.7093,3.7093,0,0,3.7287,3.7277,3.7263,3.7252,3.7235,3.7226,3.7223,3.7205,3.7198,3.7176,3.717,3.7155,3.7124,3.7111,3.71,3.7081,3.7076,3.7075,3.707,3.7056,3.7055,3.7053,3.7046,3.7043,3.7073,3.7073,3.7073,0,3.7284,3.7263,3.7255,3.724,3.723,3.7224,3.7209,3.7198,3.7175,3.7168,3.717,3.7132,3.7118,3.7092,3.7087,3.7079,3.7073,3.7077,3.7056,3.7054,3.7052,3.7045,3.7043,3.7073,3.7073,3.7073,3.7073,0,3.726,3.7246,3.7236,3.7217,3.7206,3.719,3.7178,3.7168,3.7162,3.7153,3.713,3.7114,3.7093,3.7086,3.708,3.7059,3.706,3.7059,3.7062,3.705,3.7043,3.7041,3.7073,3.7073,3.7073,3.7073,0,0,3.7247,3.7224,3.7221,3.7212,3.7193,3.7181,3.7165,3.7146,3.7137,3.7121,3.7107,3.7081,3.7081,3.7068,3.706,3.7049,3.7034,3.7049,3.7048,3.7047,3.7009,3.701,3.7007,3.7031,3.703,3.703,3.701,0,3.723,3.7204,3.7196,3.7172,3.7158,3.7152,3.7138,3.7124,3.7115,3.71,3.7088,3.7071,3.7071,3.7063,3.7052,3.7039,3.7026,3.704,3.7015,3.7015,3.7021,3.7003,3.7004,3.6986,3.7008,3.7007,3.7007,0,3.7208,3.7194,3.717,3.7153,3.7147,3.7135,3.7117,3.7103,3.7087,3.708,3.7067,3.706,3.7041,3.7045,3.7018,3.7028,3.7017,3.7009,3.7008,3.7005,3.701,3.6999,3.698,3.6978,3.7002,3.7003,3.7003,0,3.72,3.7175,3.7158,3.715,3.7131,3.7122,3.7113,3.7097,3.7086,3.707,3.7063,3.7044,3.7033,3.7017,3.7005,3.7009,3.6979,3.6982,3.6972,3.6972,3.6965,3.6966,3.6944,3.6959,3.6959,3.6959,3.6959,0,3.7182,3.7168,3.7154,3.7143,3.7126,3.7117,3.71,3.709,3.7076,3.7061,3.7054,3.7041,3.7025,3.7009,3.6999,3.6978,3.6973,3.6966,3.6963,3.6967,3.6967,3.6959,3.696,3.6958,3.6958,3.6958,3.6959,0,3.7171,3.7162,3.7142,3.7125,3.7121,3.7109,3.7094,3.7082,3.7072,3.7054,3.7049,3.7033,3.7014,3.7001,3.6975,3.6968,3.6945,3.6942,3.6951,3.695,3.694,3.6941,3.6912,3.6908,3.6926,3.6926,3.6926,0,3.7161,3.7149,3.7132,3.7123,3.7115,3.71,3.709,3.7079,3.7068,3.7049,3.7039,3.702,3.7004,3.6972,3.6957,3.6937,3.6934,3.6925,3.6931,3.6935,3.6934,3.6935,3.6933,3.6924,3.6924,3.6924,3.6924,0,3.7143,3.7139,3.7125,3.711,3.7098,3.7085,3.7072,3.7064,3.7051,3.7039,3.702,3.7008,3.6983,3.6963,3.6942,3.693,3.6924,3.6923,3.6919,3.6922,3.6928,3.6924,3.6949,3.6923,3.6923,3.6923,3.6923,3.6923,3.7131,3.7121,3.7108,3.7092,3.7082,3.7069,3.7058,3.7047,3.7032,3.7013,3.7007,3.6987,3.6969,3.6941,3.6929,3.6912,3.6912,3.6907,3.6906,3.6905,3.6905,3.6931,3.6908,3.6908,3.6908,3.6908,3.6908,0,3.7113,3.7104,3.7091,3.7073,3.7061,3.7059,3.7044,3.7033,3.7017,3.7002,3.6987,3.6965,3.6946,3.6929,3.6909,3.6899,3.6895,3.6893,3.6894,3.6891,3.6906,3.6911,3.6896,3.6896,3.6896,3.6896,3.6896,3.6896,3.7102,3.7085,3.7079,3.7056,3.7047,3.7029,3.7021,3.7009,3.6997,3.6974,3.6959,3.6949,3.6933,3.6912,3.6893,3.6889,3.6881,3.688,3.6875,3.6889,3.689,3.6891,3.6896,3.6879,3.6879,3.6862,3.6861,3.6861]}]]